Вернуться в каталог

SL-14 DEB

АктивенPO
NORAD 47079·DEBRIS·🇷🇺 Russia

Запущен Aug 15, 1991 с Plesetsk Cosmodrome

Loading…

Ближайшие Пролёты (ближайшие 24 часа)

TLE

УстаревшееSource: Space-Track

Эпоха: Aug 31, 2026, 19:26 UTC

1 47079U 91056DD  26243.81015697  .00000344  00000-0  76452-3 0  9990
2 47079  82.5416  64.9536 0033246 167.5020 192.6939 13.24910868281740

Отслеживайте SL-14 DEB в реальном времени с AllMySat

Download on the App Store